| time (UTC) | temp F | wind direction | speed MPH | gust MPH | rain 1hr in | rain 24hr in | rain mn in | humidity % | barometer mb |
| 20260502152328 | 47 | 49 | 2.0 | 3.0 | 0.00 | 0.00 | 0.00 | 49 | 1018.1 |
| 20260502151826 | 47 | 138 | 0.0 | 1.0 | 0.00 | 0.00 | 0.00 | 50 | 1018.4 |
| 20260502151322 | 46 | 253 | 2.0 | 2.0 | 0.00 | 0.00 | 0.00 | 50 | 1018.4 |
| 20260502150820 | 44 | 143 | 0.0 | 1.0 | 0.00 | 0.00 | 0.00 | 54 | 1018.4 |
| 20260502150316 | 44 | 75 | 1.0 | 1.0 | 0.00 | 0.00 | 0.00 | 55 | 1018.4 |
| 20260502130704 | 42 | 195 | 1.0 | 1.0 | 0.00 | 0.00 | 0.00 | 75 | 1018.4 |
| 20260502130202 | 42 | 167 | 0.0 | 1.0 | 0.00 | 0.00 | 0.00 | 77 | 1018.4 |
| 20260502123648 | 42 | 196 | 2.0 | 2.0 | 0.00 | 0.00 | 0.00 | 78 | 1018.4 |
| 20260502123145 | 42 | 163 | 0.0 | 0.0 | 0.00 | 0.00 | 0.00 | 79 | 1018.4 |
| 20260502122641 | 41 | 195 | 1.0 | 1.0 | 0.00 | 0.00 | 0.00 | 79 | 1018.4 |
| 20260502122138 | 41 | 193 | 1.0 | 1.0 | 0.00 | 0.00 | 0.00 | 79 | 1018.4 |
| 20260502121636 | 41 | 209 | 1.0 | 2.0 | 0.00 | 0.00 | 0.00 | 80 | 1018.4 |
| 20260502121133 | 40 | 152 | 0.0 | 0.0 | 0.00 | 0.00 | 0.00 | 82 | 1018.4 |
| 20260502120629 | 39 | 191 | 1.0 | 1.0 | 0.00 | 0.00 | 0.00 | 84 | 1018.4 |
| 20260502120126 | 39 | 167 | 0.0 | 1.0 | 0.00 | 0.00 | 0.00 | 87 | 1018.1 |
| 20260502115624 | 38 | 179 | 0.0 | 0.0 | 0.00 | 0.00 | 0.00 | 88 | 1018.4 |
| 20260502115120 | 38 | 130 | 0.0 | 1.0 | 0.00 | 0.00 | 0.00 | 90 | 1018.4 |
| 20260502114616 | 37 | 130 | 0.0 | 0.0 | 0.00 | 0.00 | 0.00 | 91 | 1018.4 |
| 20260502114114 | 36 | 130 | 0.0 | 0.0 | 0.00 | 0.00 | 0.00 | 91 | 1018.4 |
| 20260502113611 | 36 | 130 | 0.0 | 0.0 | 0.00 | 0.00 | 0.00 | 91 | 1018.1 |
| 20260502113109 | 36 | 130 | 0.0 | 0.0 | 0.00 | 0.00 | 0.00 | 91 | 1018.1 |
| 20260502112607 | 36 | 130 | 0.0 | 0.0 | 0.00 | 0.00 | 0.00 | 91 | 1018.4 |
| 20260502112104 | 36 | 130 | 0.0 | 0.0 | 0.00 | 0.00 | 0.00 | 91 | 1018.1 |
| 20260502111601 | 36 | 130 | 0.0 | 0.0 | 0.00 | 0.00 | 0.00 | 90 | 1018.1 |
| 20260502111059 | 36 | 130 | 0.0 | 0.0 | 0.00 | 0.00 | 0.00 | 90 | 1018.1 |
| 20260502110556 | 36 | 130 | 0.0 | 0.0 | 0.00 | 0.00 | 0.00 | 90 | 1017.8 |
| 20260502110054 | 36 | 129 | 0.0 | 0.0 | 0.00 | 0.00 | 0.00 | 90 | 1018.1 |
| 20260502105551 | 36 | 129 | 0.0 | 0.0 | 0.00 | 0.00 | 0.00 | 89 | 1018.1 |
| 20260502105048 | 36 | 129 | 0.0 | 0.0 | 0.00 | 0.00 | 0.00 | 89 | 1017.8 |
| 20260502104545 | 36 | 129 | 0.0 | 0.0 | 0.00 | 0.00 | 0.00 | 89 | 1018.1 |
| 20260502104043 | 36 | 129 | 0.0 | 0.0 | 0.00 | 0.00 | 0.00 | 88 | 1017.8 |
| 20260502103540 | 36 | 129 | 0.0 | 0.0 | 0.00 | 0.00 | 0.00 | 88 | 1018.1 |
| 20260502103038 | 37 | 129 | 0.0 | 0.0 | 0.00 | 0.00 | 0.00 | 88 | 1017.8 |
| 20260502102534 | 37 | 128 | 0.0 | 0.0 | 0.00 | 0.00 | 0.00 | 87 | 1017.8 |
| 20260502102032 | 37 | 128 | 0.0 | 0.0 | 0.00 | 0.00 | 0.00 | 87 | 1017.8 |
| 20260502101529 | 37 | 128 | 0.0 | 0.0 | 0.00 | 0.00 | 0.00 | 87 | 1017.8 |
| 20260502101027 | 37 | 128 | 0.0 | 0.0 | 0.00 | 0.00 | 0.00 | 87 | 1017.8 |
| 20260502100526 | 37 | 128 | 0.0 | 0.0 | 0.00 | 0.00 | 0.00 | 87 | 1017.8 |
| 20260502091500 | 38 | 128 | 0.0 | 0.0 | 0.00 | 0.00 | 0.00 | 85 | 1017.4 |
| 20260502090958 | 38 | 128 | 0.0 | 0.0 | 0.00 | 0.00 | 0.00 | 85 | 1017.8 |
| 20260502090454 | 38 | 128 | 0.0 | 0.0 | 0.00 | 0.00 | 0.00 | 84 | 1017.4 |
| 20260502071349 | 39 | 131 | 0.0 | 0.0 | 0.00 | 0.00 | 0.00 | 84 | 1017.4 |
| 20260502070847 | 39 | 130 | 0.0 | 0.0 | 0.00 | 0.00 | 0.00 | 83 | 1017.4 |
| 20260502070344 | 39 | 129 | 0.0 | 0.0 | 0.00 | 0.00 | 0.00 | 83 | 1017.4 |
| 20260502065843 | 39 | 130 | 0.0 | 0.0 | 0.00 | 0.00 | 0.00 | 83 | 1017.4 |
| 20260502065340 | 39 | 131 | 0.0 | 0.0 | 0.00 | 0.00 | 0.00 | 83 | 1017.1 |
| 20260502064838 | 39 | 130 | 0.0 | 0.0 | 0.00 | 0.00 | 0.00 | 83 | 1017.4 |
| 20260502064336 | 39 | 131 | 0.0 | 0.0 | 0.00 | 0.00 | 0.00 | 83 | 1017.4 |
| 20260502063833 | 39 | 131 | 0.0 | 1.0 | 0.00 | 0.00 | 0.00 | 83 | 1017.4 |
| 20260502063331 | 39 | 140 | 0.0 | 0.0 | 0.00 | 0.00 | 0.00 | 83 | 1017.8 |
| 20260502062828 | 39 | 130 | 0.0 | 0.0 | 0.00 | 0.00 | 0.00 | 83 | 1017.4 |
| 20260502062325 | 39 | 131 | 0.0 | 0.0 | 0.00 | 0.00 | 0.00 | 83 | 1017.4 |
| 20260502061824 | 39 | 142 | 0.0 | 0.0 | 0.00 | 0.00 | 0.00 | 83 | 1017.8 |
| 20260502061322 | 39 | 130 | 0.0 | 0.0 | 0.00 | 0.00 | 0.00 | 82 | 1017.4 |
| 20260502060817 | 39 | 142 | 0.0 | 0.0 | 0.00 | 0.00 | 0.00 | 82 | 1017.8 |
| 20260502060312 | 39 | 142 | 0.0 | 0.0 | 0.00 | 0.00 | 0.00 | 82 | 1017.8 |
| 20260502055810 | 39 | 138 | 0.0 | 0.0 | 0.00 | 0.00 | 0.00 | 82 | 1017.8 |
| 20260502055308 | 39 | 144 | 0.0 | 0.0 | 0.00 | 0.00 | 0.00 | 82 | 1017.8 |
| 20260502054808 | 39 | 144 | 0.0 | 0.0 | 0.00 | 0.00 | 0.00 | 81 | 1017.8 |
| 20260502054305 | 39 | 140 | 0.0 | 0.0 | 0.00 | 0.00 | 0.00 | 81 | 1017.8 |
| 20260502053802 | 39 | 143 | 0.0 | 0.0 | 0.00 | 0.00 | 0.00 | 82 | 1017.8 |
| 20260502053259 | 39 | 167 | 0.0 | 0.0 | 0.00 | 0.00 | 0.00 | 81 | 1017.8 |
| 20260502052757 | 39 | 139 | 0.0 | 0.0 | 0.00 | 0.00 | 0.00 | 81 | 1017.8 |
| 20260502052255 | 40 | 142 | 0.0 | 0.0 | 0.00 | 0.00 | 0.00 | 81 | 1017.8 |
| 20260502051752 | 40 | 144 | 0.0 | 0.0 | 0.00 | 0.00 | 0.00 | 81 | 1017.8 |
| 20260502051251 | 40 | 137 | 0.0 | 1.0 | 0.00 | 0.00 | 0.00 | 81 | 1017.8 |
| 20260502050746 | 40 | 149 | 0.0 | 0.0 | 0.00 | 0.00 | 0.00 | 80 | 1017.4 |
| 20260502050242 | 40 | 166 | 0.0 | 0.0 | 0.00 | 0.00 | 0.00 | 80 | 1017.8 |
| 20260502045740 | 40 | 175 | 1.0 | 1.0 | 0.00 | 0.00 | 0.00 | 81 | 1017.8 |
| 20260502045237 | 40 | 160 | 0.0 | 0.0 | 0.00 | 0.00 | 0.00 | 80 | 1017.4 |
| 20260502044733 | 41 | 148 | 0.0 | 1.0 | 0.00 | 0.00 | 0.00 | 79 | 1017.4 |
| 20260502044230 | 41 | 107 | 1.0 | 2.0 | 0.00 | 0.00 | 0.00 | 79 | 1017.4 |
| 20260502043727 | 41 | 112 | 2.0 | 2.0 | 0.00 | 0.00 | 0.00 | 78 | 1017.4 |
| 20260502043225 | 41 | 122 | 0.0 | 1.0 | 0.00 | 0.00 | 0.00 | 78 | 1017.4 |
| 20260502042724 | 41 | 111 | 1.0 | 2.0 | 0.00 | 0.00 | 0.00 | 78 | 1017.4 |
| 20260502042222 | 41 | 123 | 0.0 | 1.0 | 0.00 | 0.00 | 0.00 | 78 | 1017.4 |
| 20260502041719 | 41 | 28 | 3.0 | 3.0 | 0.00 | 0.00 | 0.00 | 78 | 1017.4 |
| 20260502041216 | 41 | 71 | 1.0 | 2.0 | 0.00 | 0.00 | 0.00 | 77 | 1017.4 |
| 20260502040713 | 41 | 106 | 2.0 | 2.0 | 0.00 | 0.00 | 0.00 | 77 | 1017.4 |
| 20260502040210 | 41 | 120 | 4.0 | 4.0 | 0.00 | 0.00 | 0.00 | 76 | 1017.1 |
| 20260502035706 | 41 | 41 | 3.0 | 4.0 | 0.00 | 0.00 | 0.00 | 76 | 1017.1 |
| 20260502035203 | 42 | 112 | 1.0 | 2.0 | 0.00 | 0.00 | 0.00 | 75 | 1017.1 |
| 20260502034700 | 42 | 109 | 1.0 | 1.0 | 0.00 | 0.00 | 0.00 | 75 | 1016.8 |
| 20260502034159 | 42 | 120 | 1.0 | 1.0 | 0.00 | 0.00 | 0.00 | 75 | 1017.1 |
| 20260502033656 | 42 | 78 | 1.0 | 2.0 | 0.00 | 0.00 | 0.00 | 75 | 1016.8 |
| 20260502033154 | 43 | 93 | 4.0 | 6.0 | 0.00 | 0.00 | 0.00 | 75 | 1017.1 |
| 20260502032650 | 44 | 352 | 3.0 | 6.0 | 0.00 | 0.00 | 0.00 | 68 | 1016.8 |
| 20260502032146 | 44 | 152 | 0.0 | 0.0 | 0.00 | 0.00 | 0.00 | 63 | 1016.4 |
| 20260502031644 | 44 | 165 | 1.0 | 2.0 | 0.00 | 0.00 | 0.00 | 63 | 1016.4 |
| 20260502031142 | 44 | 139 | 0.0 | 0.0 | 0.00 | 0.00 | 0.00 | 63 | 1016.8 |
| 20260502030641 | 45 | 126 | 0.0 | 1.0 | 0.00 | 0.00 | 0.00 | 63 | 1016.4 |
| 20260502030138 | 45 | 136 | 0.0 | 1.0 | 0.00 | 0.00 | 0.00 | 64 | 1016.4 |
| 20260502025635 | 45 | 165 | 0.0 | 1.0 | 0.00 | 0.00 | 0.00 | 64 | 1016.4 |
| 20260502025133 | 45 | 135 | 0.0 | 0.0 | 0.00 | 0.00 | 0.00 | 65 | 1016.8 |
| 20260502024631 | 45 | 150 | 0.0 | 0.0 | 0.00 | 0.00 | 0.00 | 64 | 1016.4 |
| 20260502024129 | 45 | 171 | 0.0 | 0.0 | 0.00 | 0.00 | 0.00 | 65 | 1016.4 |
| 20260502023627 | 45 | 144 | 0.0 | 0.0 | 0.00 | 0.00 | 0.00 | 64 | 1016.4 |
| 20260502023123 | 46 | 211 | 1.0 | 2.0 | 0.00 | 0.00 | 0.00 | 64 | 1016.8 |
| 20260502022620 | 46 | 175 | 0.0 | 0.0 | 0.00 | 0.00 | 0.00 | 64 | 1016.4 |
| 20260502022118 | 46 | 173 | 0.0 | 0.0 | 0.00 | 0.00 | 0.00 | 64 | 1016.4 |
| 20260502021615 | 45 | 192 | 1.0 | 1.0 | 0.00 | 0.00 | 0.00 | 64 | 1016.8 |
| 20260502021111 | 45 | 110 | 1.0 | 2.0 | 0.00 | 0.00 | 0.00 | 64 | 1016.4 |
| 20260502020609 | 46 | 122 | 1.0 | 1.0 | 0.00 | 0.00 | 0.00 | 63 | 1016.4 |
| 20260502020106 | 46 | 189 | 1.0 | 2.0 | 0.00 | 0.00 | 0.00 | 63 | 1016.1 |
| 20260502015604 | 46 | 124 | 1.0 | 1.0 | 0.00 | 0.00 | 0.00 | 64 | 1016.1 |
| 20260502015100 | 46 | 213 | 1.0 | 2.0 | 0.00 | 0.00 | 0.00 | 63 | 1016.4 |
| 20260502014557 | 46 | 219 | 1.0 | 2.0 | 0.00 | 0.00 | 0.00 | 63 | 1016.4 |
| 20260502014054 | 46 | 184 | 0.0 | 1.0 | 0.00 | 0.00 | 0.00 | 65 | 1016.4 |
| 20260502013549 | 46 | 136 | 0.0 | 0.0 | 0.00 | 0.00 | 0.00 | 65 | 1016.1 |
| 20260502013046 | 46 | 139 | 0.0 | 0.0 | 0.00 | 0.00 | 0.00 | 65 | 1016.1 |
| 20260502012543 | 46 | 214 | 1.0 | 1.0 | 0.00 | 0.00 | 0.00 | 64 | 1016.1 |
| 20260502012041 | 46 | 186 | 0.0 | 1.0 | 0.00 | 0.00 | 0.00 | 65 | 1016.4 |
| 20260502011537 | 46 | 153 | 0.0 | 1.0 | 0.00 | 0.00 | 0.00 | 65 | 1016.1 |
| 20260502011034 | 46 | 298 | 1.0 | 3.0 | 0.00 | 0.00 | 0.00 | 65 | 1016.1 |
| 20260502010532 | 46 | 150 | 0.0 | 0.0 | 0.00 | 0.00 | 0.00 | 65 | 1016.1 |
| 20260502010027 | 46 | 117 | 1.0 | 1.0 | 0.00 | 0.00 | 0.00 | 64 | 1015.6 |
| 20260502005525 | 46 | 151 | 0.0 | 0.0 | 0.00 | 0.00 | 0.00 | 64 | 1015.6 |
| 20260502005023 | 46 | 75 | 2.0 | 2.0 | 0.00 | 0.00 | 0.00 | 64 | 1015.6 |
| 20260502004518 | 46 | 153 | 0.0 | 1.0 | 0.00 | 0.00 | 0.00 | 63 | 1015.6 |
| 20260502004015 | 46 | 206 | 1.0 | 1.0 | 0.00 | 0.00 | 0.00 | 64 | 1015.6 |
| 20260502003514 | 46 | 138 | 0.0 | 0.0 | 0.00 | 0.00 | 0.00 | 64 | 1015.6 |
| 20260502003010 | 46 | 143 | 0.0 | 0.0 | 0.00 | 0.00 | 0.00 | 63 | 1015.6 |
| 20260502002507 | 46 | 163 | 1.0 | 1.0 | 0.00 | 0.00 | 0.00 | 64 | 1015.6 |
| 20260502002004 | 46 | 149 | 0.0 | 0.0 | 0.00 | 0.00 | 0.00 | 63 | 1015.6 |
| 20260502001501 | 46 | 173 | 1.0 | 1.0 | 0.00 | 0.00 | 0.00 | 65 | 1015.6 |
| 20260502000959 | 47 | 155 | 0.0 | 0.0 | 0.00 | 0.00 | 0.00 | 64 | 1015.6 |
| 20260502000457 | 46 | 154 | 1.0 | 1.0 | 0.00 | 0.00 | 0.00 | 63 | 1015.3 |
| 20260501235953 | 47 | 112 | 1.0 | 2.0 | 0.00 | 0.00 | 0.00 | 63 | 1015.3 |
| 20260501235449 | 47 | 115 | 0.0 | 1.0 | 0.00 | 0.00 | 0.00 | 64 | 1015.3 |
| 20260501234944 | 47 | 137 | 0.0 | 1.0 | 0.00 | 0.00 | 0.00 | 64 | 1015.3 |
| 20260501234441 | 47 | 112 | 1.0 | 1.0 | 0.00 | 0.00 | 0.00 | 63 | 1015.0 |
| 20260501233940 | 47 | 175 | 1.0 | 1.0 | 0.00 | 0.00 | 0.00 | 64 | 1015.3 |
| 20260501233437 | 47 | 63 | 2.0 | 2.0 | 0.00 | 0.00 | 0.00 | 64 | 1015.3 |
| 20260501232932 | 47 | 113 | 1.0 | 1.0 | 0.00 | 0.00 | 0.00 | 63 | 1015.3 |
| 20260501232430 | 47 | 151 | 0.0 | 0.0 | 0.00 | 0.00 | 0.00 | 63 | 1015.3 |
| 20260501231926 | 47 | 167 | 0.0 | 1.0 | 0.00 | 0.00 | 0.00 | 63 | 1015.3 |
| 20260501231426 | 48 | 47 | 2.0 | 3.0 | 0.00 | 0.00 | 0.00 | 62 | 1015.0 |
| 20260501230923 | 48 | 247 | 1.0 | 2.0 | 0.00 | 0.00 | 0.00 | 63 | 1015.0 |
| 20260501230421 | 48 | 203 | 0.0 | 1.0 | 0.00 | 0.00 | 0.00 | 62 | 1015.3 |
| 20260501225918 | 48 | 297 | 3.0 | 3.0 | 0.00 | 0.00 | 0.00 | 61 | 1015.0 |
| 20260501225416 | 48 | 182 | 1.0 | 1.0 | 0.00 | 0.00 | 0.00 | 61 | 1015.3 |
| 20260501224912 | 48 | 196 | 2.0 | 3.0 | 0.00 | 0.00 | 0.00 | 60 | 1015.0 |
| 20260501224410 | 49 | 175 | 1.0 | 1.0 | 0.00 | 0.00 | 0.00 | 60 | 1015.0 |
| 20260501223906 | 49 | 156 | 0.0 | 0.0 | 0.00 | 0.00 | 0.00 | 61 | 1015.0 |
| 20260501223402 | 49 | 122 | 1.0 | 1.0 | 0.00 | 0.00 | 0.00 | 59 | 1015.0 |
| 20260501222858 | 49 | 2 | 2.0 | 3.0 | 0.00 | 0.00 | 0.00 | 59 | 1015.0 |
| 20260501222355 | 50 | 192 | 1.0 | 1.0 | 0.00 | 0.00 | 0.00 | 56 | 1015.0 |
| 20260501221852 | 50 | 139 | 0.0 | 1.0 | 0.00 | 0.00 | 0.00 | 56 | 1014.6 |
| 20260501221349 | 50 | 109 | 1.0 | 1.0 | 0.00 | 0.00 | 0.00 | 55 | 1014.6 |
| 20260501220847 | 50 | 193 | 1.0 | 2.0 | 0.00 | 0.00 | 0.00 | 56 | 1014.6 |
| 20260501220344 | 50 | 191 | 1.0 | 1.0 | 0.00 | 0.00 | 0.00 | 57 | 1014.6 |
| 20260501215841 | 50 | 65 | 1.0 | 2.0 | 0.00 | 0.00 | 0.00 | 56 | 1014.6 |
| 20260501215337 | 50 | 123 | 1.0 | 1.0 | 0.00 | 0.00 | 0.00 | 57 | 1014.6 |
| 20260501214832 | 50 | 130 | 1.0 | 1.0 | 0.00 | 0.00 | 0.00 | 59 | 1014.6 |
| 20260501214328 | 49 | 122 | 0.0 | 1.0 | 0.00 | 0.00 | 0.00 | 60 | 1014.6 |
| 20260501213819 | 49 | 158 | 0.0 | 0.0 | 0.00 | 0.00 | 0.00 | 63 | 1014.6 |
| 20260501213315 | 49 | 147 | 0.0 | 1.0 | 0.00 | 0.00 | 0.00 | 60 | 1014.6 |
| 20260501212811 | 50 | 151 | 0.0 | 0.0 | 0.00 | 0.00 | 0.00 | 60 | 1014.6 |
| 20260501212308 | 50 | 157 | 0.0 | 1.0 | 0.00 | 0.00 | 0.00 | 57 | 1014.6 |
| 20260501211805 | 50 | 135 | 0.0 | 0.0 | 0.00 | 0.00 | 0.00 | 56 | 1014.3 |
| 20260501211302 | 51 | 64 | 1.0 | 2.0 | 0.00 | 0.00 | 0.00 | 56 | 1014.3 |
| 20260501210759 | 51 | 159 | 1.0 | 1.0 | 0.00 | 0.00 | 0.00 | 55 | 1014.3 |
| 20260501210256 | 51 | 202 | 2.0 | 2.0 | 0.00 | 0.00 | 0.00 | 54 | 1013.9 |
| 20260501205752 | 51 | 189 | 0.0 | 1.0 | 0.00 | 0.00 | 0.00 | 55 | 1013.9 |
| 20260501205249 | 51 | 160 | 1.0 | 1.0 | 0.00 | 0.00 | 0.00 | 57 | 1014.3 |
| 20260501204746 | 51 | 70 | 1.0 | 1.0 | 0.00 | 0.00 | 0.00 | 56 | 1014.3 |
| 20260501204243 | 50 | 219 | 1.0 | 2.0 | 0.00 | 0.00 | 0.00 | 56 | 1013.9 |
| 20260501203739 | 50 | 207 | 1.0 | 1.0 | 0.00 | 0.00 | 0.00 | 57 | 1014.3 |
| 20260501203236 | 50 | 110 | 1.0 | 1.0 | 0.00 | 0.00 | 0.00 | 59 | 1013.9 |
| 20260501202733 | 50 | 67 | 3.0 | 4.0 | 0.00 | 0.00 | 0.00 | 56 | 1014.3 |
| 20260501202230 | 50 | 18 | 2.0 | 3.0 | 0.00 | 0.00 | 0.00 | 56 | 1014.3 |
| 20260501201727 | 50 | 111 | 1.0 | 1.0 | 0.00 | 0.00 | 0.00 | 54 | 1013.9 |
| 20260501201224 | 51 | 63 | 2.0 | 2.0 | 0.00 | 0.00 | 0.00 | 54 | 1014.3 |
| 20260501200721 | 51 | 105 | 1.0 | 2.0 | 0.00 | 0.00 | 0.00 | 55 | 1013.9 |
| 20260501200218 | 51 | 46 | 4.0 | 8.0 | 0.00 | 0.00 | 0.00 | 54 | 1013.9 |
| 20260501195715 | 53 | 47 | 2.0 | 6.0 | 0.00 | 0.00 | 0.00 | 53 | 1013.9 |
| 20260501195211 | 53 | 212 | 1.0 | 2.0 | 0.00 | 0.00 | 0.00 | 54 | 1013.9 |
| 20260501194707 | 51 | 110 | 1.0 | 2.0 | 0.00 | 0.00 | 0.00 | 53 | 1013.9 |
| 20260501194202 | 51 | 125 | 0.0 | 1.0 | 0.00 | 0.00 | 0.00 | 54 | 1013.9 |
| 20260501193659 | 51 | 65 | 1.0 | 1.0 | 0.00 | 0.00 | 0.00 | 53 | 1013.9 |
| 20260501193158 | 51 | 71 | 2.0 | 3.0 | 0.00 | 0.00 | 0.00 | 53 | 1013.9 |
| 20260501192655 | 51 | 147 | 0.0 | 0.0 | 0.00 | 0.00 | 0.00 | 55 | 1013.9 |
| 20260501192152 | 51 | 125 | 2.0 | 3.0 | 0.00 | 0.00 | 0.00 | 53 | 1013.9 |
| 20260501191649 | 51 | 38 | 2.0 | 3.0 | 0.00 | 0.00 | 0.00 | 50 | 1013.9 |
| 20260501191147 | 51 | 209 | 2.0 | 2.0 | 0.00 | 0.00 | 0.00 | 49 | 1013.9 |
| 20260501190643 | 51 | 89 | 1.0 | 2.0 | 0.00 | 0.00 | 0.00 | 50 | 1013.6 |
| 20260501190137 | 51 | 11 | 2.0 | 4.0 | 0.00 | 0.00 | 0.00 | 50 | 1013.6 |
| 20260501185629 | 51 | 129 | 1.0 | 1.0 | 0.00 | 0.00 | 0.00 | 52 | 1013.9 |
| 20260501185124 | 50 | 86 | 2.0 | 2.0 | 0.00 | 0.00 | 0.00 | 54 | 1013.9 |
| 20260501184621 | 50 | 133 | 0.0 | 0.0 | 0.00 | 0.00 | 0.00 | 54 | 1013.6 |
| 20260501184115 | 50 | 149 | 0.0 | 0.0 | 0.00 | 0.00 | 0.00 | 54 | 1013.6 |
| 20260501183613 | 50 | 125 | 0.0 | 1.0 | 0.00 | 0.00 | 0.00 | 55 | 1013.6 |
| 20260501183109 | 51 | 61 | 0.0 | 1.0 | 0.00 | 0.00 | 0.00 | 54 | 1013.3 |
| 20260501182606 | 50 | 216 | 2.0 | 3.0 | 0.00 | 0.00 | 0.00 | 55 | 1013.6 |
| 20260501182103 | 51 | 124 | 2.0 | 2.0 | 0.00 | 0.00 | 0.00 | 55 | 1013.6 |
| 20260501181600 | 51 | 53 | 1.0 | 2.0 | 0.00 | 0.00 | 0.00 | 55 | 1013.6 |
| 20260501181057 | 50 | 180 | 0.0 | 0.0 | 0.00 | 0.00 | 0.00 | 55 | 1013.6 |
| 20260501180555 | 49 | 119 | 0.0 | 1.0 | 0.00 | 0.00 | 0.00 | 55 | 1013.6 |
| 20260501180050 | 49 | 107 | 1.0 | 1.0 | 0.00 | 0.00 | 0.00 | 56 | 1013.6 |
| 20260501175547 | 49 | 13 | 3.0 | 4.0 | 0.00 | 0.00 | 0.00 | 57 | 1013.6 |
| 20260501175044 | 50 | 11 | 3.0 | 4.0 | 0.00 | 0.00 | 0.00 | 57 | 1013.6 |
| 20260501174541 | 50 | 274 | 2.0 | 3.0 | 0.00 | 0.00 | 0.00 | 57 | 1013.6 |
| 20260501174039 | 50 | 113 | 1.0 | 1.0 | 0.00 | 0.00 | 0.00 | 57 | 1013.6 |
| 20260501173536 | 50 | 93 | 1.0 | 1.0 | 0.00 | 0.00 | 0.00 | 56 | 1013.6 |
| 20260501173033 | 50 | 48 | 2.0 | 3.0 | 0.00 | 0.00 | 0.00 | 57 | 1013.6 |
| 20260501172528 | 50 | 7 | 1.0 | 1.0 | 0.00 | 0.00 | 0.00 | 57 | 1013.6 |
| 20260501172024 | 50 | 72 | 2.0 | 3.0 | 0.00 | 0.00 | 0.00 | 58 | 1013.6 |
| 20260501171520 | 50 | 143 | 0.0 | 0.0 | 0.00 | 0.00 | 0.00 | 58 | 1013.6 |
| 20260501171017 | 49 | 102 | 1.0 | 1.0 | 0.00 | 0.00 | 0.00 | 60 | 1013.6 |
| 20260501170514 | 49 | 75 | 2.0 | 2.0 | 0.00 | 0.00 | 0.00 | 64 | 1013.6 |
| 20260501170011 | 49 | 120 | 1.0 | 1.0 | 0.00 | 0.00 | 0.00 | 65 | 1013.6 |
| 20260501165509 | 49 | 117 | 0.0 | 1.0 | 0.00 | 0.00 | 0.00 | 65 | 1013.6 |
| 20260501165006 | 51 | 91 | 1.0 | 2.0 | 0.00 | 0.00 | 0.00 | 63 | 1013.9 |
| 20260501164504 | 51 | 206 | 0.0 | 1.0 | 0.00 | 0.00 | 0.00 | 63 | 1013.6 |
| 20260501164000 | 51 | 161 | 0.0 | 0.0 | 0.00 | 0.00 | 0.00 | 65 | 1013.6 |
| 20260501163456 | 50 | 46 | 4.0 | 6.0 | 0.00 | 0.00 | 0.00 | 64 | 1013.6 |
| 20260501162953 | 50 | 95 | 5.0 | 6.0 | 0.00 | 0.00 | 0.00 | 66 | 1013.9 |
| 20260501162449 | 50 | 40 | 2.0 | 3.0 | 0.00 | 0.00 | 0.00 | 68 | 1013.6 |
| 20260501161947 | 50 | 47 | 3.0 | 3.0 | 0.00 | 0.00 | 0.00 | 69 | 1013.6 |
| 20260501161444 | 48 | 95 | 2.0 | 3.0 | 0.00 | 0.00 | 0.00 | 69 | 1013.6 |
| 20260501160940 | 48 | 104 | 4.0 | 4.0 | 0.00 | 0.00 | 0.00 | 70 | 1013.9 |
| 20260501160437 | 48 | 92 | 2.0 | 4.0 | 0.00 | 0.00 | 0.00 | 73 | 1013.6 |
| 20260501155934 | 48 | 160 | 0.0 | 1.0 | 0.00 | 0.00 | 0.00 | 74 | 1013.9 |
| 20260501155431 | 48 | 84 | 1.0 | 1.0 | 0.00 | 0.00 | 0.00 | 74 | 1013.9 |
| 20260501154928 | 47 | 119 | 1.0 | 1.0 | 0.00 | 0.00 | 0.00 | 75 | 1013.9 |